Theta_e
337 338 338 338 337 338 337 334 329 328 330 329 329 329 328 329 330 328 327 328 331 333 334 337 337 336 335 334 333 334 334 333 332 331 330 328 322 322 324 327 328 327 327 328 327 326 325 325 324 324 325 324 323 324 324 323 323 323 323 324 323 323 322 323 322 322 323 323 323 322 321 321 323 324 323 322 323 323 322 322 320 319 320 321 322
338 339 338 338 338 337 337 336 331 326 327 329 329 330 329 328 329 330 329 330 332 333 335 336 337 336 336 334 333 334 334 333 333 331 330 327 323 324 325 326 326 327 328 327 326 326 326 325 325 325 325 324 324 324 324 324 324 323 323 324 324 323 323 322 322 322 322 323 323 323 322 322 323 324 323 323 324 324 323 322 321 320 319 321 322
338 340 339 339 338 338 337 337 335 328 325 326 328 329 330 330 331 332 331 331 331 331 333 335 337 336 335 334 333 334 334 333 333 331 331 327 325 326 325 325 326 327 328 327 326 327 326 326 326 325 325 325 325 325 325 325 325 324 324 324 323 323 323 323 323 322 322 323 323 323 323 323 323 324 323 324 324 324 324 323 322 321 319 320 321
339 340 339 339 338 338 338 337 337 334 330 327 328 329 330 331 333 335 335 334 334 334 336 337 336 334 333 333 333 334 333 333 332 332 331 328 327 327 324 324 326 327 328 326 325 327 327 326 327 326 325 326 327 326 326 326 325 324 324 323 323 323 323 323 323 323 323 322 322 322 323 323 323 323 324 324 324 324 324 323 323 322 320 320 320
340 340 340 339 338 338 338 337 337 337 335 332 329 329 330 331 332 333 335 335 335 336 337 337 336 334 332 332 332 332 333 332 332 331 330 330 329 327 324 324 324 325 327 325 324 327 327 327 327 325 326 327 327 327 328 326 325 325 324 323 323 324 323 323 322 322 322 321 321 321 322 323 323 323 324 324 324 324 324 323 323 322 322 321 320
340 340 340 339 338 338 337 337 337 337 337 335 332 331 331 332 331 331 332 333 335 336 336 336 336 334 332 332 331 331 332 332 332 331 330 330 330 328 327 325 323 323 325 325 324 326 327 326 327 325 326 327 327 328 328 327 325 325 324 324 323 323 323 323 322 321 321 320 319 321 322 322 321 321 322 323 323 323 324 324 323 322 321 321 321
339 339 339 339 339 338 338 337 337 337 337 335 334 332 332 332 332 331 331 332 333 335 335 335 335 334 332 332 331 331 331 332 332 332 331 330 329 328 329 328 326 323 323 325 325 326 326 325 326 326 326 328 328 329 328 327 326 325 324 325 324 324 322 323 323 322 321 319 318 320 322 322 321 320 321 322 322 322 322 323 323 322 321 321 321
339 339 339 338 339 339 339 338 337 337 337 336 335 333 333 333 332 330 331 332 332 333 334 335 335 333 333 333 332 331 331 332 332 331 331 331 330 329 329 330 329 325 321 324 326 326 325 321 323 325 326 328 329 329 329 328 327 325 324 324 324 325 323 323 324 323 321 318 318 320 321 322 322 320 320 321 322 322 322 323 323 323 322 321 320
339 339 339 338 339 339 338 338 337 337 336 337 336 335 334 334 333 330 330 332 332 333 335 336 335 333 333 333 332 331 331 331 331 331 331 331 331 330 330 331 332 328 321 322 324 324 323 317 319 324 326 328 328 329 330 329 328 327 325 324 324 324 324 324 324 323 321 319 318 320 320 321 322 321 320 321 323 323 323 324 324 324 323 321 320
338 338 339 338 338 338 338 338 337 336 336 336 336 336 336 335 334 332 331 332 331 332 334 336 335 333 332 332 332 331 331 331 331 331 331 331 331 330 331 331 332 330 324 321 320 321 320 315 317 324 326 327 328 329 330 330 329 329 327 325 324 324 324 325 325 324 323 320 317 319 320 322 323 321 321 322 323 323 323 324 324 324 322 321 320
337 337 338 338 338 337 337 338 337 337 336 336 336 336 336 336 335 334 333 332 331 331 333 336 334 332 332 332 332 331 331 331 331 331 331 331 332 331 331 332 332 332 328 324 319 317 317 314 319 326 326 327 328 329 331 330 330 330 329 326 324 325 325 325 325 324 323 320 317 319 321 322 323 322 322 323 323 324 323 324 324 323 322 320 320
336 337 338 338 338 338 337 337 337 337 337 336 335 335 335 335 335 335 334 332 331 332 333 335 333 331 331 332 332 332 331 332 332 332 331 331 332 331 331 332 332 332 330 328 322 317 315 315 321 326 326 327 328 329 330 330 330 330 330 327 324 324 325 325 326 325 324 321 318 320 321 322 322 322 322 322 323 323 323 324 323 322 321 320 319
337 337 338 338 338 338 338 338 337 337 336 336 335 334 334 334 335 335 335 333 332 333 333 333 331 329 330 331 331 331 332 332 332 332 331 331 332 332 332 332 333 332 330 330 327 322 315 316 322 326 326 327 328 329 329 329 329 330 330 328 326 324 324 325 326 325 325 322 318 319 322 322 322 322 322 322 322 322 323 323 323 322 321 321 320
336 337 337 337 336 337 337 337 337 336 336 336 335 335 334 334 334 334 334 333 332 332 333 332 330 329 329 329 330 331 331 331 332 332 331 332 333 333 333 332 333 332 331 330 329 327 320 317 321 325 326 326 327 328 328 329 329 329 329 329 328 326 323 324 326 325 325 323 319 318 321 323 322 323 323 322 321 321 323 323 322 321 321 321 321
336 336 337 336 336 337 337 337 336 336 336 336 335 335 334 334 334 334 334 333 333 332 333 333 331 330 329 329 331 333 333 331 331 332 332 333 333 333 333 333 333 332 331 331 330 329 325 322 321 324 325 325 327 328 328 328 327 328 328 328 329 328 325 324 325 325 324 325 320 317 321 323 322 323 322 322 320 320 322 322 322 321 320 320 320
336 336 336 336 336 336 336 336 336 335 336 336 335 335 334 334 334 335 334 334 334 333 333 333 332 332 332 331 331 332 336 333 330 332 332 333 333 333 333 333 333 332 331 331 330 329 328 326 325 325 326 326 327 327 328 328 327 327 328 328 329 329 326 325 325 325 324 325 322 318 321 323 322 323 323 322 320 319 321 322 322 321 321 320 320
336 335 336 336 336 335 335 336 336 336 335 335 335 335 334 334 334 335 335 334 334 333 333 333 332 333 332 333 333 334 337 334 331 333 332 332 334 333 333 333 332 331 331 331 330 330 329 328 328 328 327 327 327 327 327 327 327 327 327 328 329 328 326 325 325 324 324 325 323 319 320 323 323 323 323 321 318 318 320 322 322 321 321 320 320
337 336 335 335 336 335 335 335 335 336 336 335 334 334 333 334 335 335 334 334 334 334 334 333 333 333 332 333 334 334 334 333 334 336 333 332 334 333 333 332 331 331 331 331 330 330 329 329 330 329 329 329 328 328 328 329 328 327 327 328 329 328 326 324 324 324 323 324 324 320 318 322 324 322 322 320 317 318 320 321 321 320 320 319 319
338 337 336 336 336 336 336 336 335 336 336 335 335 333 333 333 333 334 335 334 333 332 334 333 332 332 332 332 331 331 331 331 335 338 336 335 333 333 333 332 331 331 331 332 331 331 330 330 330 329 330 330 330 330 330 330 329 327 327 328 329 328 325 323 323 323 323 324 325 321 318 322 324 323 323 320 318 319 319 321 320 319 319 316 315
338 337 336 336 336 336 335 336 336 336 336 336 335 335 334 333 334 334 334 335 333 332 333 333 331 332 333 331 331 330 329 330 332 333 336 338 334 332 333 332 332 332 331 331 331 331 331 331 330 330 330 330 330 330 330 330 329 327 327 328 328 328 326 323 321 321 324 325 326 323 319 321 323 323 323 321 318 317 318 319 318 318 317 313 311
336 335 335 335 335 335 334 334 335 335 335 335 335 335 334 334 335 334 334 334 334 333 332 331 331 332 332 331 331 330 329 330 330 330 333 336 336 334 333 333 333 332 331 331 331 330 331 331 331 330 331 331 330 331 330 330 330 328 327 327 328 328 327 324 320 319 322 325 327 324 320 320 322 323 323 322 319 317 317 318 317 317 314 311 312
333 333 334 333 333 333 333 333 333 333 333 334 334 334 333 333 334 334 334 334 334 334 332 331 331 331 331 332 331 331 330 330 330 330 331 333 334 333 333 332 333 333 332 332 331 331 331 331 331 331 331 331 331 331 330 330 330 329 328 327 328 327 327 325 319 316 321 324 326 325 322 322 323 323 323 322 320 317 316 316 317 316 311 310 313
332 332 332 332 332 332 332 331 331 332 332 333 333 334 333 333 334 334 334 334 334 334 332 332 333 331 329 330 332 331 331 331 331 331 331 332 333 333 331 331 332 332 332 333 332 332 331 331 331 331 331 331 330 330 330 330 330 330 329 328 327 327 327 323 316 316 320 323 326 325 323 322 323 324 323 321 318 315 313 315 316 314 310 311 314
332 331 331 331 332 332 332 332 331 331 332 332 332 333 333 332 333 333 334 334 333 334 332 331 332 331 328 329 331 332 332 332 332 331 331 331 332 332 330 330 332 331 331 332 332 332 332 331 331 331 331 331 331 330 330 329 330 330 329 327 327 328 325 318 318 320 319 322 326 326 324 323 322 324 323 320 318 313 309 313 316 313 311 313 313
330 331 331 331 331 331 332 332 332 332 332 333 332 332 332 332 332 332 332 333 333 332 330 329 330 330 329 328 329 331 331 332 331 331 331 330 330 330 330 330 331 331 331 331 331 332 332 331 331 331 331 331 331 330 329 329 329 330 329 326 326 327 319 314 321 323 319 321 325 326 325 324 322 323 322 319 317 312 309 312 314 313 313 313 314
326 328 329 331 331 331 331 331 332 332 332 333 332 332 331 331 332 331 331 331 331 330 329 328 329 329 330 329 329 330 331 332 332 331 330 330 330 329 329 329 330 329 330 331 331 331 332 332 332 331 331 331 331 330 330 329 329 330 329 326 324 321 313 313 322 324 320 320 324 326 325 324 323 322 321 319 315 310 309 312 312 312 313 313 314
325 326 327 328 329 330 331 331 331 331 331 332 332 331 331 330 330 330 330 330 330 330 330 329 328 329 330 331 330 330 331 332 332 331 330 330 330 329 329 329 330 329 329 329 330 331 331 332 332 331 331 331 331 330 330 330 329 330 330 326 322 312 307 315 323 323 323 321 322 326 324 323 323 321 320 318 313 307 308 313 313 310 309 310 312
323 324 324 326 327 328 330 330 331 331 330 331 331 331 331 330 330 329 329 329 329 330 330 330 329 329 330 330 330 330 331 331 331 330 330 329 330 330 329 329 330 331 330 329 329 330 331 331 331 331 331 331 331 330 330 330 329 330 330 328 323 311 304 315 323 323 324 323 321 325 324 323 323 320 319 317 309 303 305 311 312 307 305 307 309
322 322 322 324 325 326 327 329 330 330 330 330 330 331 331 330 330 329 328 328 329 329 330 330 330 329 329 328 328 329 329 329 329 330 330 330 329 329 329 328 329 330 331 331 329 328 329 330 330 331 331 331 331 330 330 330 330 330 330 328 327 319 308 313 322 324 323 322 322 324 324 323 321 319 320 316 305 300 302 308 310 305 302 303 305
319 320 320 322 322 323 324 327 327 328 328 328 329 330 330 331 330 329 328 328 328 328 329 330 330 329 328 328 327 328 328 328 329 329 330 330 330 329 329 329 328 328 329 330 330 328 328 329 330 330 331 330 330 331 330 330 330 330 330 328 328 327 317 311 319 324 322 320 322 324 323 323 321 319 319 314 304 298 300 304 306 302 300 299 301
316 317 318 319 319 319 321 323 323 323 324 325 326 327 328 329 330 330 329 329 329 328 329 330 330 329 328 328 328 327 327 328 328 328 329 330 330 329 328 328 328 328 328 329 330 330 328 329 330 330 331 330 330 330 330 330 330 330 330 329 326 327 323 314 316 323 322 319 322 324 323 322 321 319 318 312 302 298 299 300 301 299 298 297 298
314 315 315 316 316 316 317 319 319 320 321 322 323 323 324 324 325 326 327 328 329 329 329 329 329 329 329 328 328 328 328 328 328 328 329 329 329 329 329 329 328 328 328 328 329 330 329 329 329 330 330 330 329 330 330 330 330 330 330 330 326 324 323 316 314 321 323 321 322 324 322 321 320 318 317 310 301 298 299 299 299 298 297 297 297
311 312 313 313 313 313 314 315 316 317 318 318 319 319 320 320 321 322 322 324 326 327 329 329 329 329 329 329 329 329 329 328 328 328 329 329 329 329 329 330 329 329 329 328 328 328 328 328 329 329 329 330 329 329 330 329 330 330 329 330 327 323 320 315 313 321 324 322 323 323 321 320 319 317 317 311 302 298 299 299 299 298 297 297 298
309 309 310 310 310 311 311 312 313 314 314 314 314 315 316 317 319 320 320 321 322 323 326 328 329 329 329 329 330 330 330 329 328 329 329 330 329 329 329 330 330 330 329 328 327 327 328 328 328 328 329 330 329 329 329 329 329 330 328 328 327 323 317 311 311 320 324 324 323 323 321 320 319 318 318 314 306 299 299 300 299 298 297 297 298
307 307 307 308 308 308 308 309 310 310 310 310 310 311 312 313 314 316 317 318 319 321 323 324 327 329 329 329 329 329 330 330 330 329 330 330 329 329 329 330 330 330 329 328 327 327 328 327 327 328 328 329 329 329 329 329 329 329 327 326 325 322 315 310 310 318 323 324 324 323 322 321 320 319 318 316 309 301 298 300 299 298 297 297 298
306 306 306 306 306 306 306 306 308 308 307 307 308 309 309 309 309 311 313 314 316 318 320 322 324 326 328 329 329 329 329 329 330 330 329 330 329 329 329 330 329 329 329 329 328 327 327 327 327 328 328 328 328 327 326 326 326 326 325 323 322 319 314 311 312 316 320 324 324 323 323 322 321 320 318 316 311 303 299 300 299 298 297 297 298
306 305 305 305 305 305 304 304 305 306 306 305 304 305 305 305 306 307 308 310 312 314 316 318 321 324 326 328 329 329 329 329 329 329 329 328 329 329 330 330 330 329 329 329 329 328 327 326 326 327 328 327 326 325 323 321 321 321 320 319 319 317 314 314 316 317 319 323 324 323 323 323 322 320 317 315 312 304 299 300 300 298 298 298 298
306 304 304 304 304 304 304 303 303 304 304 302 301 300 302 303 305 306 306 307 309 311 313 314 317 319 322 325 327 328 328 329 329 328 328 328 328 329 330 330 331 330 329 329 329 329 327 326 326 327 327 326 326 325 322 320 319 318 317 317 317 317 317 317 319 320 319 322 324 323 323 323 322 319 315 313 311 305 300 301 301 299 298 298 298
305 304 303 303 303 303 302 302 302 302 303 301 299 299 301 302 303 305 307 308 309 310 311 312 313 315 318 321 325 326 327 328 328 328 328 328 328 328 329 329 330 330 329 329 328 328 327 326 326 326 327 326 326 325 322 318 318 317 316 316 315 316 317 317 319 320 320 321 323 323 322 322 321 318 315 313 311 307 303 302 301 300 299 298 298
305 303 302 301 301 301 301 301 301 301 301 299 298 299 300 300 302 305 308 309 310 311 311 312 312 313 314 317 321 324 326 327 328 328 328 328 328 328 328 328 328 329 330 328 328 328 327 327 326 326 326 326 326 326 322 317 315 315 315 316 315 315 316 316 317 318 319 320 322 323 322 322 320 318 317 316 313 309 307 304 302 302 301 299 298
303 302 301 301 300 301 301 300 300 300 299 299 298 297 298 299 301 306 309 309 309 309 310 311 311 311 312 313 316 321 324 326 328 328 328 328 328 327 327 328 328 330 330 328 327 327 327 326 326 326 326 325 326 326 322 317 316 316 316 316 316 315 315 315 316 316 316 316 319 322 322 321 321 320 319 318 316 313 311 309 306 304 303 302 301
301 301 300 300 300 300 300 300 300 300 299 298 298 298 298 299 302 307 310 309 308 308 308 309 310 310 310 311 313 317 321 324 326 327 328 328 328 328 327 327 328 330 330 328 326 327 326 326 325 325 325 325 325 326 324 319 317 318 316 315 316 316 314 313 313 315 315 314 317 320 321 320 320 320 319 318 317 314 312 310 307 305 305 304 304
300 299 299 299 299 299 299 299 299 299 298 298 298 299 301 302 304 307 307 307 307 307 307 307 308 309 310 310 312 314 318 322 324 326 327 327 327 327 327 327 328 329 329 328 326 326 326 326 325 325 325 325 325 326 326 322 318 317 317 316 316 317 315 313 312 313 314 315 315 317 318 318 318 319 318 318 317 313 310 309 307 306 306 306 307
300 299 299 298 298 298 298 298 298 298 298 298 298 300 302 303 304 306 305 305 305 305 305 306 306 307 309 311 312 314 316 319 322 325 326 327 327 327 327 327 327 328 329 329 327 326 326 326 325 325 325 325 325 325 326 324 320 318 317 317 316 316 315 314 313 313 314 314 314 314 314 315 316 317 317 316 314 311 308 307 307 306 306 308 309
300 299 298 298 297 297 297 297 297 297 297 297 298 300 301 302 303 304 305 304 303 303 303 303 304 305 306 308 310 313 316 318 320 323 325 326 327 327 327 327 327 327 328 328 328 327 327 327 326 325 325 325 325 325 325 326 323 320 318 316 315 316 315 314 314 314 314 314 313 311 311 312 313 314 314 313 312 309 307 307 307 306 306 308 309
300 299 298 297 297 297 297 296 296 296 296 297 298 300 300 301 302 302 303 303 302 302 302 302 302 302 303 304 305 308 312 315 318 321 323 325 326 327 327 327 327 327 327 327 328 328 328 327 326 326 325 325 325 325 325 326 324 322 320 318 316 316 316 315 314 313 313 314 314 311 308 309 310 311 311 310 309 308 308 308 308 307 306 307 308
300 300 298 297 297 297 296 296 296 296 296 296 298 299 300 301 301 301 301 302 303 302 302 301 301 301 301 301 302 303 305 309 315 319 321 323 325 327 326 326 326 326 326 327 328 328 328 328 326 326 326 325 326 325 325 325 325 324 322 320 318 316 315 315 314 313 313 313 313 311 308 307 308 309 308 307 307 306 306 306 306 305 305 306 305
299 299 298 297 297 297 296 296 296 296 296 296 297 298 299 300 300 300 300 301 302 303 301 300 300 300 300 300 301 301 301 304 309 314 317 320 322 325 327 326 325 325 325 326 327 327 327 328 327 326 326 326 326 326 326 325 325 324 322 320 317 315 314 314 314 313 312 312 311 310 308 306 307 307 306 305 305 305 305 305 304 304 303 303 303
298 298 298 297 297 297 296 296 296 296 295 295 296 297 298 298 299 300 299 299 301 302 301 299 299 299 300 300 300 300 300 301 305 310 314 317 318 321 325 326 325 324 324 324 325 326 327 327 326 326 326 325 326 326 326 325 324 323 322 319 316 314 313 314 313 312 312 311 310 310 309 306 306 306 304 304 305 305 305 305 304 304 304 304 304
297 297 297 297 297 297 296 296 296 295 295 295 295 296 297 297 298 298 297 297 299 300 299 299 299 299 300 300 300 299 299 301 305 310 313 315 316 319 323 325 324 322 322 323 323 323 325 325 325 325 325 325 325 325 325 325 324 324 322 319 316 314 314 314 313 313 312 310 309 310 309 306 305 305 304 303 303 303 304 304 304 304 304 303 303
296 296 296 297 297 297 296 296 296 295 295 295 295 296 296 297 297 298 297 296 296 297 297 298 298 298 299 300 300 299 299 302 309 314 315 315 317 319 322 323 322 321 321 322 322 322 322 323 323 324 324 324 324 324 324 324 324 324 323 321 317 315 314 313 313 313 313 311 310 310 309 306 305 306 306 304 302 301 302 303 303 303 302 301 302
Wind_Speed
12 13 15 15 14 13 10 8 8 12 14 14 12 10 9 9 9 11 14 14 14 12 10 9 10 12 13 17 16 13 13 13 11 9 6 4 5 6 7 9 10 8 8 10 8 8 8 8 9 10 10 10 10 10 9 9 10 10 10 9 9 9 9 9 10 11 10 10 10 11 12 13 13 12 12 13 14 14 14 13 14 15 15 16 16
12 13 16 17 16 15 12 9 7 10 14 15 14 13 12 11 11 11 11 13 13 13 11 10 11 13 15 18 18 15 13 14 13 10 8 6 6 6 6 9 9 7 10 11 9 9 9 8 9 10 11 10 10 10 9 9 9 10 10 10 9 9 9 9 9 10 10 10 10 11 12 12 12 11 12 13 13 13 13 14 15 15 15 16 17
13 12 14 16 17 16 14 11 9 9 12 15 15 15 14 13 12 11 11 12 13 13 12 12 13 15 16 18 18 15 13 14 13 11 9 8 7 6 7 9 8 9 12 10 8 9 9 9 10 11 11 11 10 9 10 9 8 9 9 10 10 9 9 9 9 9 9 9 9 10 10 10 10 10 11 12 13 13 13 14 14 15 16 17 17
15 13 12 14 16 16 16 14 13 11 12 14 15 16 17 16 16 14 13 13 14 15 13 13 12 11 10 12 16 14 14 14 13 11 10 9 7 7 8 9 10 12 14 10 10 11 10 11 11 11 12 12 11 9 9 10 8 8 8 10 10 9 9 9 10 9 9 9 9 9 9 10 10 9 10 11 11 13 13 14 14 15 16 16 15
15 14 13 14 15 14 15 16 16 15 15 15 16 17 18 19 18 18 17 16 17 16 14 12 12 10 6 7 13 12 13 14 14 13 12 10 8 8 8 9 11 13 13 10 12 13 11 12 12 12 13 12 12 11 10 10 9 9 8 9 10 9 9 9 10 10 9 8 9 9 9 9 9 9 10 10 9 11 12 13 14 15 16 16 16
14 14 13 14 14 14 14 15 16 17 17 18 18 18 19 20 19 19 19 19 19 18 17 14 13 13 8 6 10 11 12 14 15 15 14 12 10 9 9 9 11 12 12 11 13 14 13 13 13 13 14 13 12 12 11 10 10 10 9 9 9 9 9 8 8 9 9 8 9 9 8 8 8 9 10 10 9 9 11 12 14 15 16 18 18
13 12 12 12 13 13 13 13 15 17 18 19 21 21 21 21 20 19 19 20 20 19 19 16 14 14 11 9 11 10 11 13 15 15 15 14 13 11 10 9 10 11 13 12 13 15 14 14 14 14 16 15 13 13 12 11 10 11 10 10 9 8 8 9 8 7 8 8 10 10 8 7 8 8 10 9 9 9 10 12 13 15 16 17 18
13 12 11 12 13 13 13 13 14 17 19 20 22 23 22 22 21 19 17 18 18 17 17 16 14 14 10 10 14 13 12 13 15 16 15 15 14 14 11 10 10 11 13 14 14 16 15 14 15 16 16 15 14 14 12 11 11 11 11 11 10 9 8 9 8 6 6 8 10 10 10 8 8 9 10 10 9 10 11 12 13 14 15 16 17
13 13 12 12 13 13 13 13 14 16 18 20 22 23 23 23 23 21 18 17 16 15 14 14 15 16 11 10 16 18 15 14 14 15 15 16 16 16 14 11 10 11 13 15 16 16 15 15 18 18 17 16 15 14 12 11 12 12 12 11 10 10 9 10 9 6 6 8 10 11 11 10 9 10 11 11 10 10 11 12 13 14 15 17 17
13 13 13 13 14 14 14 14 15 16 16 18 21 23 24 23 24 22 20 19 18 17 15 13 16 18 15 12 15 19 17 14 14 14 16 17 18 19 17 14 12 12 14 15 16 17 16 16 20 20 18 16 15 14 12 11 12 13 13 10 9 10 9 10 10 8 7 7 10 13 13 11 10 11 12 11 11 11 11 12 13 14 16 17 17
14 14 15 15 15 15 15 14 17 18 17 17 19 21 23 23 24 23 22 21 20 20 18 14 14 17 17 15 16 19 19 16 16 16 16 18 19 20 19 16 14 14 14 15 16 17 17 19 21 21 19 17 16 14 12 12 11 12 13 11 10 11 10 10 10 10 8 8 11 13 12 11 10 11 12 12 12 12 12 13 14 15 16 17 16
14 15 16 17 17 17 16 15 16 18 19 18 18 18 20 22 24 23 22 21 21 20 17 14 12 11 12 15 17 18 19 18 17 17 17 18 19 21 21 19 17 16 16 16 16 17 19 21 23 22 20 18 17 15 13 12 10 10 12 11 11 12 12 11 10 11 10 8 10 12 11 11 11 11 12 12 12 12 12 13 14 15 17 17 16
14 15 17 18 19 18 17 16 16 18 20 20 19 17 17 20 22 22 21 21 21 20 18 14 11 9 11 13 16 17 18 18 18 18 18 18 19 22 23 21 19 18 18 17 16 17 19 21 24 23 21 18 17 16 14 13 12 11 12 12 12 13 13 12 12 12 11 9 10 13 13 12 11 11 12 12 11 11 12 13 14 15 15 15 14
14 15 17 18 19 18 17 17 16 17 19 20 20 18 17 18 20 21 21 22 22 21 19 15 12 13 11 6 9 14 16 19 18 18 19 18 18 22 25 23 21 20 19 19 19 18 18 21 23 24 22 19 18 18 17 15 14 13 14 14 13 14 14 13 13 13 12 11 11 14 15 13 12 12 12 12 11 11 12 13 13 14 14 13 12
15 15 17 18 19 18 18 18 17 16 18 20 20 19 19 19 20 21 21 21 21 20 21 19 15 13 8 3 4 6 9 15 18 20 19 18 18 21 25 25 23 22 21 21 21 20 19 20 23 24 23 21 19 19 18 17 16 15 15 16 15 15 14 14 14 14 13 12 11 15 16 14 12 13 13 13 12 11 12 12 13 13 13 12 11
13 15 17 18 19 19 19 19 18 17 17 19 20 20 20 21 21 21 21 20 20 20 21 21 19 14 7 3 3 2 3 7 13 19 21 20 20 21 24 25 25 24 24 24 24 23 21 21 22 23 23 22 21 20 19 18 17 16 16 17 17 15 15 15 15 15 14 14 13 15 17 14 13 13 13 13 12 12 12 12 13 12 12 10 10
11 13 15 17 18 19 19 20 19 18 17 18 19 20 20 21 21 22 23 23 22 22 21 21 23 21 13 5 3 2 3 3 6 12 19 23 22 21 23 25 26 26 27 26 25 24 23 23 23 23 23 23 21 21 21 19 18 17 18 19 18 17 16 17 17 16 16 16 14 15 17 15 14 13 14 13 13 13 12 12 12 11 10 9 8
10 11 13 15 17 18 19 19 19 18 17 17 18 19 20 21 21 22 24 26 24 21 20 22 24 24 23 18 10 5 2 4 3 3 10 19 22 22 23 25 27 28 28 27 27 26 24 23 24 24 23 23 23 22 21 20 20 20 20 20 20 19 19 18 19 18 18 17 16 16 17 16 14 14 14 13 13 14 13 13 12 11 9 9 8
11 11 11 13 14 16 18 18 19 19 18 17 17 18 20 20 21 22 23 25 23 20 21 22 22 24 27 27 23 14 6 4 4 1 2 7 16 23 26 25 26 27 29 29 28 27 26 24 24 25 24 24 23 23 22 21 21 21 21 22 21 22 21 20 20 20 19 19 18 18 18 17 15 15 15 14 14 15 14 14 12 11 10 9 9
10 10 11 12 13 15 17 18 19 20 19 18 18 18 19 19 20 22 23 24 24 24 24 21 20 23 26 27 27 23 16 11 10 8 4 2 7 14 21 25 26 27 28 29 30 29 27 26 25 25 25 25 24 23 23 21 21 22 23 23 23 24 23 22 21 21 20 20 19 19 19 18 17 16 16 15 15 15 15 14 12 12 12 10 9
10 11 12 13 14 15 15 16 18 19 18 18 19 19 19 20 21 22 23 23 24 25 26 24 24 25 24 25 25 23 20 17 15 12 7 4 4 5 11 17 20 27 30 29 30 31 29 27 26 26 26 26 26 24 23 23 22 23 23 24 25 25 25 24 23 23 22 21 20 20 20 19 18 17 16 15 15 16 15 14 13 13 12 10 10
11 11 12 14 15 15 16 16 17 18 18 18 18 19 20 21 22 22 22 23 24 25 27 27 27 27 25 24 22 20 17 14 14 15 10 6 5 4 9 12 12 21 29 31 31 31 30 28 26 27 28 27 27 26 25 25 24 24 23 25 27 27 27 26 24 24 24 23 22 21 21 19 18 18 17 15 14 15 16 15 14 13 12 12 12
14 14 13 13 13 13 15 16 17 17 18 18 19 20 21 22 22 22 23 23 24 26 28 28 28 28 26 25 24 23 19 15 17 19 13 8 6 4 9 15 14 18 25 30 32 31 30 30 29 28 28 28 28 27 27 27 25 24 23 25 28 29 28 26 25 25 26 25 23 22 22 20 19 18 17 16 15 15 16 15 14 13 12 13 12
15 16 16 15 14 13 12 13 15 16 17 19 19 20 20 21 22 23 24 24 24 25 25 27 29 28 27 26 25 25 25 24 22 20 17 15 11 5 7 12 13 16 21 23 27 31 32 31 31 30 29 29 29 28 28 28 26 24 23 25 28 30 28 26 25 24 25 26 24 23 23 20 19 19 17 16 16 16 17 16 15 14 13 13 13
15 16 16 16 16 15 14 13 14 15 16 17 18 19 19 20 21 22 25 25 24 23 22 25 27 28 26 26 26 24 26 27 24 20 19 19 14 7 8 11 9 12 17 18 21 27 31 33 32 30 31 31 30 30 29 29 27 26 24 25 28 28 28 27 27 25 25 28 26 24 23 20 19 20 18 17 17 17 17 17 16 15 15 15 14
16 15 15 15 15 16 16 15 15 16 16 18 20 19 19 20 21 22 24 24 22 21 22 24 26 27 27 26 25 26 26 27 25 23 21 20 17 12 9 9 9 9 11 15 17 18 23 30 33 32 32 32 31 31 31 30 29 27 26 26 27 28 28 28 28 26 26 28 27 26 24 21 21 21 19 19 18 17 18 18 17 17 17 17 17
15 15 16 15 15 16 16 15 16 17 17 19 21 20 19 20 21 22 24 23 21 20 21 21 23 26 28 27 25 25 26 26 26 25 25 23 22 21 14 8 6 6 5 9 14 17 21 25 29 32 32 32 34 33 32 32 30 28 28 27 27 27 29 30 29 28 28 28 28 28 26 23 23 22 22 21 20 19 19 19 19 19 18 18 18
15 16 17 16 16 16 16 15 15 17 18 18 19 20 20 20 21 21 22 22 21 22 23 22 22 23 26 27 26 26 28 28 27 26 27 27 26 25 22 14 8 4 3 5 7 14 22 23 23 30 33 33 35 35 34 33 31 30 29 29 28 28 29 31 30 29 29 29 30 29 27 25 25 24 24 23 20 20 20 20 20 19 18 19 19
16 16 17 16 16 17 17 16 15 16 18 18 18 18 19 19 20 20 20 20 20 21 23 23 23 22 22 24 24 26 28 28 28 27 27 28 28 27 27 24 18 8 4 6 6 9 18 23 23 26 32 34 35 35 35 34 33 32 31 31 30 29 29 31 32 30 30 32 32 31 29 27 26 26 26 24 21 21 22 21 21 19 19 19 20
16 16 16 15 16 17 18 18 17 16 17 18 17 18 19 20 19 18 18 19 19 21 22 22 21 20 20 21 22 25 27 28 29 31 30 29 29 29 29 30 26 16 9 6 7 12 18 23 26 27 30 35 36 36 36 36 34 33 33 32 31 31 31 31 32 32 31 33 34 33 31 28 27 27 26 25 23 22 23 22 21 20 19 20 21
16 16 15 15 16 17 18 18 19 18 19 18 17 17 18 19 20 19 18 18 18 19 20 22 22 20 19 20 22 25 26 27 28 30 31 31 31 30 30 30 29 26 21 11 6 13 19 22 27 29 29 34 37 37 37 37 36 35 34 34 32 32 32 32 33 33 33 34 34 33 31 29 28 27 26 25 24 24 23 23 22 21 21 21 22
16 16 15 16 17 17 18 18 19 19 18 18 18 17 17 17 18 18 19 19 19 19 19 21 22 21 20 20 22 24 25 26 28 30 31 31 31 30 30 31 30 29 28 19 9 11 18 21 25 29 29 32 36 37 38 38 37 36 36 36 33 32 34 34 34 35 35 34 34 33 32 31 30 28 25 24 25 24 24 23 22 21 22 22 23
17 17 16 17 17 17 17 17 18 17 17 18 19 19 18 18 17 17 18 18 18 19 19 20 20 20 21 21 22 23 24 25 27 29 31 30 29 28 28 29 31 30 28 23 14 12 16 20 21 24 27 30 34 37 39 39 39 39 38 38 36 34 36 36 36 36 36 35 34 33 33 32 30 28 25 24 24 25 24 23 22 22 23 23 23
20 19 18 18 18 18 17 17 17 16 17 20 21 21 21 21 20 19 19 19 19 19 18 20 21 21 22 23 24 24 24 25 27 28 31 30 28 28 29 28 30 30 29 26 21 15 15 17 18 21 26 31 34 37 39 40 41 41 41 40 39 37 37 37 37 37 37 36 35 34 33 32 30 29 26 24 24 25 24 24 24 24 24 24 23
22 21 20 19 19 19 18 18 18 17 20 23 23 24 24 24 24 23 22 21 21 20 19 19 21 22 23 23 25 25 24 25 27 28 30 31 29 28 29 29 29 30 29 29 26 20 17 16 16 21 27 31 35 37 40 42 42 42 43 42 41 40 38 37 37 38 38 37 36 35 34 33 31 29 27 25 24 25 25 26 26 25 25 24 24
23 23 22 19 19 20 20 20 19 18 22 26 25 25 25 26 26 25 24 23 22 21 20 20 20 21 23 24 25 26 25 26 27 28 29 30 29 28 29 30 30 30 30 30 30 27 21 15 15 21 27 31 33 35 36 38 40 41 42 41 41 40 40 38 38 38 38 38 37 36 34 34 32 30 28 26 25 25 26 27 27 26 25 25 24
23 24 24 21 19 20 20 20 20 18 21 27 28 29 29 28 27 26 25 24 23 22 22 21 20 20 21 23 25 25 26 26 28 29 29 29 29 29 30 30 31 31 30 30 31 30 25 18 16 20 25 27 28 29 31 33 32 33 34 35 38 39 39 38 38 39 39 38 37 36 35 34 33 31 29 27 25 26 26 27 27 26 25 25 25
23 25 25 22 20 19 19 20 19 18 20 25 30 33 34 32 30 29 27 26 25 23 23 22 22 21 20 21 24 25 26 27 28 29 30 29 29 29 30 31 31 30 30 30 30 30 27 23 20 20 23 25 24 25 30 33 31 31 31 30 32 34 34 34 36 37 38 40 39 37 36 36 34 32 30 28 26 26 27 27 27 27 26 25 25
22 25 26 23 21 19 19 19 19 18 19 23 30 36 37 35 33 31 29 28 27 26 25 24 24 24 22 21 22 25 27 28 30 31 30 29 29 30 31 31 29 28 30 31 30 29 27 26 23 22 23 26 26 25 28 31 31 30 30 27 26 28 30 34 36 36 37 40 40 38 37 36 35 33 31 28 27 27 27 26 27 27 26 25 24
21 23 24 23 21 19 18 18 18 18 19 24 31 37 38 37 34 32 30 29 28 27 27 26 26 26 25 23 23 24 26 27 30 32 32 31 29 29 31 30 28 29 30 29 28 27 26 25 24 24 24 25 26 24 23 25 26 24 27 29 28 30 33 34 36 36 36 39 40 40 39 37 36 34 32 30 29 28 27 26 26 27 27 25 24
21 21 22 23 23 20 18 19 19 18 20 27 33 36 36 36 35 31 29 28 27 27 27 27 26 26 26 25 24 25 26 27 29 31 33 33 31 30 31 30 28 30 30 28 26 25 24 23 22 23 23 23 26 25 22 27 31 30 32 32 29 30 32 31 32 35 37 38 40 41 40 39 38 36 35 34 32 30 29 27 26 27 27 26 24
23 22 23 25 25 23 21 20 19 20 24 31 36 36 36 36 34 29 26 26 27 28 28 28 28 27 26 25 24 24 25 26 28 29 31 34 34 34 34 32 29 29 29 28 27 26 24 21 21 23 21 21 27 29 26 30 36 35 34 33 28 26 27 25 26 31 35 37 38 40 41 41 40 39 37 36 34 33 32 30 27 27 28 27 25
26 25 26 27 27 26 24 22 21 22 27 34 38 38 39 38 34 29 25 25 27 28 28 29 29 28 28 27 25 24 24 25 27 28 29 31 33 35 36 35 33 32 29 26 26 28 26 22 22 24 23 21 27 32 30 31 35 33 34 37 33 27 26 22 18 22 32 37 37 37 39 40 40 40 39 38 36 34 33 32 29 28 28 27 25
26 27 27 28 27 27 26 25 24 24 27 34 38 38 38 38 36 33 28 24 25 26 26 26 27 27 27 27 26 24 24 25 27 28 29 31 32 34 36 37 37 37 34 30 27 28 28 25 24 25 26 25 27 32 33 32 33 33 35 37 35 30 29 27 23 23 31 37 35 33 34 36 38 38 37 37 37 35 33 32 30 29 28 27 25
24 26 27 27 27 28 28 28 27 26 29 35 38 37 37 37 36 35 31 26 24 25 27 25 25 25 25 25 25 25 25 25 26 27 30 32 32 33 35 36 37 38 38 37 33 31 32 31 28 27 30 31 30 34 38 37 35 34 33 33 34 32 31 32 31 29 31 36 36 30 27 32 35 35 34 34 35 35 33 32 31 30 28 27 25
22 25 27 27 27 28 29 29 29 29 31 36 38 37 37 37 35 33 32 30 27 27 28 26 25 25 26 25 25 26 27 26 25 25 28 31 32 33 33 34 35 37 38 39 37 36 36 36 34 33 34 36 35 37 41 41 40 38 36 36 38 37 33 29 27 25 26 33 37 29 21 25 31 30 28 29 29 30 31 30 30 29 27 25 22
21 22 25 26 27 29 30 30 31 31 33 36 38 37 37 37 36 33 32 33 31 30 30 29 27 28 28 27 26 27 29 29 28 26 26 28 30 31 32 32 32 34 36 38 39 39 39 38 37 36 37 38 40 39 39 40 41 41 42 42 41 38 31 24 20 21 22 28 35 28 16 17 26 25 22 23 22 22 23 23 23 23 22 21 20
20 21 23 25 26 28 30 31 32 33 34 36 37 37 37 37 37 35 33 32 33 33 33 31 30 30 30 29 29 30 30 32 33 30 28 27 28 31 32 31 31 31 33 35 37 38 39 39 37 37 37 38 39 39 37 38 39 39 36 33 31 30 26 20 19 22 22 25 31 28 17 16 22 23 18 16 16 16 16 17 16 16 18 20 21
22 22 23 24 25 27 29 31 32 32 34 36 36 36 37 37 37 36 34 32 33 34 34 33 31 31 31 30 30 33 34 35 36 34 31 29 27 29 32 31 30 29 30 32 33 35 36 36 36 36 36 35 36 36 36 37 38 37 32 28 28 30 26 17 14 19 23 24 28 27 20 20 23 22 19 17 16 17 17 17 18 19 21 24 25
24 24 24 25 25 27 28 29 30 32 33 36 37 36 36 37 37 36 34 33 33 33 34 34 32 32 34 35 34 36 39 37 35 31 29 30 28 27 29 30 27 25 26 28 29 30 31 32 33 32 32 31 30 30 31 33 36 39 37 33 32 34 29 20 16 18 19 24 29 28 20 22 25 26 27 23 16 17 22 24 26 28 29 29 28
25 26 26 27 27 27 28 28 30 32 33 35 37 37 36 36 36 36 34 33 33 32 32 34 35 35 37 38 40 41 41 36 30 23 19 24 27 26 26 26 23 22 25 26 26 27 27 27 27 26 26 26 26 26 27 29 34 39 41 38 35 36 32 25 23 19 12 17 30 31 23 25 30 31 31 23 12 11 20 29 31 32 32 31 29
Wind_Direction
236 233 232 234 230 226 220 214 211 211 216 218 219 218 214 209 199 192 191 197 203 213 236 256 276 279 269 270 259 232 222 217 210 209 210 208 176 172 173 173 192 196 168 167 173 176 178 176 169 161 156 155 153 151 151 148 145 145 142 136 134 131 126 124 125 124 121 116 114 111 112 114 109 105 106 106 103 96 92 91 92 102 114 116 113
240 234 231 235 235 235 232 225 220 215 215 217 220 223 224 220 212 209 209 217 227 237 255 268 282 289 277 265 251 232 224 220 215 215 212 204 184 181 184 186 197 186 170 175 177 179 179 180 176 166 161 158 154 153 153 149 145 148 147 142 138 135 129 125 126 125 124 121 118 116 115 113 108 108 110 107 101 96 91 88 87 95 111 119 116
242 237 232 232 234 241 244 238 232 220 216 218 219 222 226 229 225 221 223 230 240 248 261 276 287 296 285 258 238 223 218 217 216 215 214 207 197 198 197 192 187 178 189 193 174 178 185 181 180 172 164 159 156 152 149 151 151 150 151 151 145 139 135 130 128 127 128 126 122 121 119 118 114 110 112 108 104 101 96 91 87 92 105 116 116
244 243 236 231 232 239 245 246 244 234 224 224 225 224 225 231 236 237 237 238 244 251 262 274 278 291 285 237 217 210 208 207 210 215 216 209 205 210 204 194 190 192 208 207 175 181 191 183 182 176 167 162 162 158 153 156 157 154 155 155 149 144 142 140 136 132 131 129 128 127 123 123 122 119 115 110 110 107 103 100 94 93 99 109 116
248 248 246 241 237 238 245 251 251 244 236 232 231 230 231 233 237 241 245 245 245 248 257 264 260 269 284 220 204 203 207 205 206 210 209 208 211 212 206 201 202 206 214 208 182 183 193 189 186 180 170 168 168 164 163 163 161 162 159 150 148 149 149 148 146 141 138 137 136 131 127 127 128 130 123 117 120 116 111 108 101 97 100 106 109
249 246 247 244 242 245 254 258 254 247 243 239 234 232 235 237 237 239 246 250 246 246 253 263 260 258 271 239 203 200 212 214 210 206 201 203 209 208 207 207 210 216 216 205 184 183 194 193 189 185 176 175 175 170 171 173 169 168 165 153 146 149 150 150 152 151 150 148 141 134 132 130 132 142 137 128 130 124 117 115 107 102 104 106 105
251 248 249 247 247 250 258 263 254 246 245 243 239 237 238 242 243 241 246 250 247 247 253 261 260 253 257 244 217 211 219 219 216 212 203 200 206 208 208 210 217 223 218 205 186 188 201 198 191 190 181 178 181 179 178 178 179 174 167 162 154 151 151 150 152 154 159 158 146 139 139 132 130 145 147 137 133 128 123 123 118 111 108 107 107
250 250 252 255 254 252 256 261 253 247 248 247 244 242 242 246 249 247 248 249 247 250 256 259 255 246 250 243 228 223 220 217 222 222 213 204 206 210 211 215 223 228 219 207 195 195 206 204 195 194 186 183 187 187 187 184 187 182 169 166 164 164 160 156 158 158 160 159 151 146 146 142 132 137 148 146 132 126 130 132 129 123 116 111 111
249 248 252 259 261 258 257 256 250 247 249 249 247 246 247 249 251 250 249 247 247 254 260 257 246 237 237 235 224 221 218 216 220 220 218 213 208 209 214 220 224 228 219 211 205 200 206 206 198 196 192 190 193 195 198 196 196 193 178 170 171 174 174 170 169 162 150 151 155 157 154 151 142 137 146 145 131 127 134 135 133 130 124 117 115
259 255 256 261 266 264 258 252 246 243 245 248 249 249 250 250 251 251 251 248 246 252 257 254 242 234 229 225 220 220 219 217 215 214 218 218 213 210 213 219 223 226 219 215 211 203 204 204 198 197 195 195 197 200 206 206 208 207 194 184 186 184 183 183 178 165 158 155 153 155 154 152 147 144 147 145 136 134 134 132 132 130 126 121 117
266 263 261 262 266 265 258 249 243 242 244 247 248 248 248 249 249 251 251 247 244 247 253 251 239 231 225 221 222 223 222 219 216 218 221 220 217 214 214 216 220 225 221 216 214 208 206 203 199 197 198 202 204 204 209 211 215 212 196 190 197 195 193 194 185 173 170 164 155 152 155 156 152 148 150 149 141 136 133 132 133 131 128 125 120
266 265 264 263 263 265 262 253 245 243 244 245 245 246 247 247 248 248 246 241 239 240 244 239 226 228 231 224 220 221 224 224 220 221 222 220 218 218 218 217 217 222 222 216 214 212 209 206 203 200 201 209 211 209 210 211 213 207 194 193 198 198 201 200 191 182 176 168 162 159 159 159 157 156 156 154 145 139 138 137 136 133 130 128 124
268 264 262 262 261 263 263 259 253 246 246 247 249 251 252 250 248 247 243 236 232 232 234 225 210 226 245 239 230 227 227 227 225 223 219 218 221 221 221 220 219 221 222 219 217 216 215 212 210 207 208 214 213 210 212 212 211 205 199 199 200 199 203 200 192 188 182 174 166 162 162 162 164 166 163 157 152 148 145 143 140 137 135 133 130
273 267 263 262 263 264 265 266 263 255 251 252 253 254 255 254 249 245 242 236 231 230 227 218 205 216 227 251 264 250 237 231 230 227 219 217 220 221 222 222 221 222 222 221 220 219 219 217 215 215 216 220 217 212 214 215 211 207 202 200 203 201 201 199 194 193 188 180 173 166 165 169 172 170 165 160 158 159 157 151 145 143 144 141 136
272 270 267 266 267 268 270 272 272 267 261 259 258 257 256 256 252 245 240 236 235 233 230 224 214 206 192 181 257 259 252 240 237 233 223 217 217 219 222 223 224 224 222 222 222 221 220 220 220 221 222 224 222 216 216 217 213 210 205 202 204 200 198 199 197 198 192 184 181 172 168 173 177 172 165 162 165 169 168 160 153 154 155 151 147
270 268 267 267 268 270 274 276 277 277 272 267 265 263 261 261 257 248 239 232 232 234 234 228 219 205 177 150 169 187 258 240 233 235 228 220 219 219 222 223 224 223 222 222 223 222 222 224 224 225 226 226 224 221 220 219 216 213 208 205 203 196 195 198 197 199 195 187 187 179 174 177 179 176 169 165 172 178 175 169 164 165 167 164 162
280 270 264 264 267 270 274 275 274 276 275 272 270 269 269 266 261 252 241 235 234 235 233 228 224 219 209 189 144 183 237 207 213 235 229 222 223 221 220 221 221 221 221 222 223 223 224 227 229 228 227 227 226 225 223 223 221 217 211 207 201 191 193 197 194 200 202 193 188 184 182 180 180 181 173 168 178 181 176 174 173 174 179 176 172
292 282 269 264 266 270 272 273 274 274 273 272 271 271 272 269 263 257 249 243 238 236 235 229 228 228 222 220 221 221 196 163 166 243 231 223 224 224 222 220 221 221 221 221 222 222 223 227 231 230 228 229 229 227 227 227 226 222 215 209 200 189 192 196 192 199 206 200 191 187 185 183 185 185 178 175 180 179 177 179 180 179 185 182 172
293 292 282 274 273 274 272 272 274 275 274 274 274 273 273 271 266 261 258 253 244 240 242 235 228 229 229 228 228 230 233 210 199 196 226 223 224 226 226 224 223 224 223 223 223 222 222 225 230 231 230 230 231 229 228 228 227 224 218 213 202 191 192 196 194 198 204 203 196 189 186 185 190 190 185 183 180 180 184 187 187 184 187 186 174
292 292 289 284 280 278 279 277 275 275 275 274 275 276 277 277 272 265 261 259 252 246 246 241 232 232 232 229 229 230 232 236 232 216 186 184 219 225 228 226 225 226 226 226 225 223 222 223 227 231 232 231 232 231 230 227 225 223 218 214 205 196 195 197 197 196 199 203 198 191 188 187 192 194 192 191 186 187 193 193 193 189 187 186 175
304 299 296 292 284 282 287 286 282 279 278 274 274 277 277 276 274 271 266 263 259 253 248 245 241 240 236 230 229 230 230 238 246 236 212 197 204 210 218 220 225 229 229 227 227 227 225 223 225 229 232 233 232 232 232 227 223 221 217 213 207 200 200 201 200 196 195 204 202 193 190 189 192 196 195 199 198 194 195 194 193 192 189 183 174
338 325 313 308 301 295 292 288 285 285 284 282 282 283 281 275 273 273 272 268 264 258 251 247 245 244 241 234 227 224 225 232 240 238 229 217 217 211 206 204 216 228 228 225 226 227 225 223 224 228 232 233 232 232 231 228 225 223 218 213 208 204 204 207 205 197 193 203 207 197 192 191 193 196 196 201 202 195 193 191 192 195 190 180 173
1 357 347 337 326 314 303 294 289 287 287 288 288 287 285 281 276 272 269 267 265 262 257 252 249 247 245 240 232 227 225 225 227 225 221 215 213 210 209 210 216 226 227 225 224 225 225 223 225 228 230 231 232 231 230 227 226 224 220 214 209 207 209 209 206 198 192 200 210 203 195 193 193 195 197 199 199 195 192 189 192 196 187 177 175
357 359 360 355 346 336 325 311 301 293 290 291 289 285 283 281 278 273 268 264 263 264 261 255 253 250 247 244 241 237 234 234 234 228 224 223 217 207 205 207 219 232 232 228 226 226 226 225 225 227 228 229 232 230 227 226 225 223 220 213 209 209 212 209 204 199 194 197 207 204 197 195 193 195 198 199 200 196 191 189 191 193 184 177 176
356 351 354 357 355 350 342 330 317 305 298 296 292 287 285 281 277 275 272 269 266 265 262 258 256 253 251 251 248 247 245 243 241 235 234 234 229 229 216 203 212 232 232 227 226 228 229 228 227 227 228 228 230 229 226 225 224 221 218 212 210 211 211 207 203 202 198 196 204 204 196 194 193 195 199 200 202 197 191 190 189 189 185 179 176
4 358 356 354 354 352 347 341 333 321 310 303 299 295 292 287 281 277 276 277 276 271 265 265 264 257 252 250 247 246 248 248 245 239 237 236 234 237 230 215 222 231 228 224 223 225 227 230 228 226 227 227 228 228 225 225 223 219 216 213 212 212 210 206 202 203 200 196 201 202 197 194 193 197 202 202 202 197 192 191 189 190 188 180 175
8 7 7 1 355 351 346 343 340 332 321 309 303 302 301 294 288 282 280 282 281 274 265 261 259 254 250 248 246 244 244 245 246 243 240 237 234 234 232 223 230 235 229 225 224 225 227 228 227 224 224 225 226 226 226 225 222 219 216 214 214 212 209 206 202 203 202 199 201 200 196 195 195 200 206 206 205 200 194 192 192 193 191 184 177
9 9 11 9 5 1 353 346 342 336 328 317 310 311 309 303 296 289 285 283 282 280 275 267 260 257 256 256 253 251 251 250 249 246 243 242 239 237 233 228 229 232 227 228 231 233 231 227 224 223 221 222 223 224 225 225 222 219 216 213 213 210 208 206 204 205 205 202 201 200 196 195 198 203 208 209 206 201 196 194 196 197 193 187 181
12 10 10 11 13 12 7 0 353 344 334 324 316 315 314 310 304 298 290 286 282 280 279 276 273 269 266 265 261 259 260 259 254 250 247 244 241 240 237 233 231 226 218 228 227 231 231 225 222 222 219 218 220 221 223 223 222 219 215 213 213 212 209 207 205 206 206 203 200 199 197 197 202 207 209 210 207 202 199 197 199 199 194 190 186
14 11 9 12 13 13 15 15 10 3 352 339 329 321 315 309 307 305 300 292 287 282 278 276 276 273 269 268 266 262 261 258 255 253 250 245 241 239 238 236 232 227 228 235 226 227 228 224 222 221 218 215 216 219 220 222 222 219 216 214 214 215 212 209 207 207 208 205 201 200 199 199 204 209 211 211 207 202 201 200 201 200 195 192 189
13 11 11 12 9 10 17 19 15 12 9 3 353 342 329 317 311 312 311 302 291 286 283 277 275 272 264 258 258 259 260 256 253 252 248 244 241 238 235 234 230 228 231 237 240 232 227 223 223 222 218 213 212 215 217 219 221 220 217 215 215 217 215 211 208 207 208 209 205 201 200 200 205 211 214 212 208 203 202 203 202 199 196 195 193
8 8 10 11 7 8 14 16 16 14 12 9 4 360 355 345 334 327 323 314 299 290 286 282 279 274 266 259 258 258 258 255 252 250 247 244 241 236 232 232 230 229 230 232 244 243 233 232 229 223 218 211 208 211 213 215 219 219 218 217 215 216 216 213 210 208 208 211 208 203 200 202 207 211 213 213 209 205 204 204 203 199 197 198 197
14 10 11 10 7 8 12 16 20 15 8 6 2 359 357 354 351 345 338 330 317 303 290 282 278 274 269 264 264 263 259 256 255 252 250 247 242 235 230 228 227 226 225 225 234 247 242 239 231 222 217 209 205 209 210 210 215 217 216 217 216 215 214 212 210 208 208 210 209 204 202 204 208 210 211 213 211 207 205 205 203 200 200 200 200
17 14 13 11 8 9 11 15 21 12 1 1 359 355 352 346 342 340 338 336 332 323 309 292 281 276 271 265 263 264 261 257 254 251 250 248 243 236 231 227 225 225 224 222 228 237 241 236 224 218 216 208 204 208 209 209 212 214 212 213 214 214 213 211 210 208 208 209 209 206 204 206 208 210 212 213 212 209 206 205 203 201 202 202 201
19 17 15 12 11 13 13 16 22 13 1 0 357 352 349 343 337 333 330 329 328 325 320 309 295 284 275 268 265 265 260 255 253 250 249 249 245 239 235 231 228 227 225 222 224 228 234 232 217 211 211 206 205 209 210 211 212 211 209 209 211 212 211 211 210 209 207 208 209 208 207 208 209 211 213 214 213 211 208 206 204 203 204 204 203
23 19 17 15 14 15 14 16 21 15 3 1 360 355 351 345 339 334 329 325 322 317 312 310 305 294 282 272 269 267 261 254 252 251 249 248 245 240 237 234 232 231 228 224 223 225 228 225 212 213 213 207 206 209 209 208 209 207 205 205 207 208 209 210 211 210 208 207 208 209 208 209 211 213 215 215 214 212 210 208 205 204 204 205 204
25 21 18 17 16 16 14 12 15 12 2 1 4 0 356 351 345 340 334 328 322 316 308 302 299 296 291 282 274 269 264 257 254 253 251 249 246 243 239 234 231 230 228 224 221 221 222 216 206 213 217 211 208 209 208 205 201 199 199 201 203 204 206 209 210 211 209 206 206 209 210 211 213 215 217 217 215 213 212 209 208 206 205 206 206
25 22 20 20 17 14 12 10 10 7 359 359 3 360 356 353 348 344 340 335 329 322 313 305 297 290 288 287 281 275 268 261 257 256 254 250 246 241 238 236 232 228 226 226 223 219 217 215 206 204 209 211 209 207 208 208 199 190 190 198 203 203 202 203 206 209 209 207 206 208 211 212 214 216 217 218 216 215 214 212 210 209 207 208 208
26 21 20 20 18 15 13 9 9 8 2 359 359 358 356 354 349 345 342 339 335 329 321 314 305 296 286 281 280 278 274 267 261 260 257 252 247 242 240 238 235 231 228 225 221 216 212 211 208 205 205 207 208 208 207 207 200 189 187 191 196 200 202 204 206 206 207 207 206 208 211 213 215 217 218 219 219 217 216 215 213 211 210 209 209
28 22 21 21 20 19 16 12 10 9 6 2 359 358 357 354 349 345 343 341 338 333 328 321 314 306 296 284 275 274 274 270 265 261 258 254 248 245 246 242 235 233 229 220 213 210 207 205 204 204 203 201 205 207 199 192 191 191 192 192 193 198 202 205 206 206 206 207 206 208 211 213 215 217 218 221 223 221 219 219 217 215 213 211 210
30 25 23 24 23 21 17 15 14 12 8 3 359 359 358 355 350 347 345 345 344 339 334 330 324 316 308 295 281 273 272 270 266 263 261 259 253 248 249 247 237 232 227 217 210 208 205 203 201 200 199 198 201 201 188 183 192 199 197 195 198 202 201 201 205 207 208 207 205 207 210 212 213 215 217 219 222 222 221 221 221 218 215 213 211
33 29 29 29 28 24 19 16 14 13 8 3 1 2 4 1 356 351 348 350 351 345 338 334 330 325 318 306 289 276 271 271 270 267 263 262 259 254 251 248 240 232 225 214 208 207 205 202 198 196 197 198 200 200 193 192 199 201 194 193 200 200 193 194 204 209 211 208 204 205 209 212 213 214 216 219 221 221 221 221 222 220 216 215 213
35 34 33 31 29 25 23 20 15 12 7 3 3 7 9 8 4 359 357 355 352 345 339 335 331 328 323 316 304 288 277 274 274 273 269 264 261 258 256 251 244 238 231 217 206 203 204 203 201 200 199 199 200 202 202 200 200 198 193 193 196 191 183 187 198 207 211 210 204 203 208 211 212 213 215 219 221 222 222 222 222 221 218 216 216
32 32 31 29 27 24 22 20 16 13 7 4 6 10 10 11 10 8 6 1 352 346 343 338 333 329 324 319 311 299 287 281 277 275 273 269 264 261 259 257 252 245 240 233 219 207 203 203 205 205 204 202 200 201 205 205 202 198 195 195 196 190 185 189 195 200 207 208 203 201 205 209 211 212 215 219 221 222 223 223 223 222 219 218 218
29 28 27 26 24 21 20 18 15 13 8 6 9 11 10 12 12 10 9 6 358 352 349 343 337 334 329 322 315 305 296 290 284 279 274 271 269 266 263 261 257 250 245 242 237 227 217 210 209 210 208 205 202 203 206 207 202 197 193 194 196 195 193 196 199 199 202 202 199 197 201 208 209 209 212 217 220 222 222 223 223 223 220 219 219
26 24 23 23 23 20 18 16 14 13 11 9 10 10 9 10 12 10 9 8 4 359 356 351 344 340 335 329 321 312 302 295 287 281 277 271 268 268 266 263 258 253 248 244 241 238 230 220 215 215 213 210 210 209 209 208 204 198 195 195 197 197 198 200 200 200 199 198 197 194 192 202 205 202 205 212 217 220 222 223 223 223 222 220 218
28 23 22 22 22 20 18 16 14 13 12 11 11 11 8 8 11 10 8 8 6 3 1 358 351 347 344 338 329 321 312 301 288 278 275 274 269 264 263 260 257 254 250 246 243 239 234 227 221 219 218 217 217 215 211 209 206 204 202 201 200 196 193 189 188 192 196 197 196 191 179 188 195 191 192 204 210 214 219 221 223 223 221 217 211
34 29 24 22 20 18 16 15 13 11 12 12 12 12 10 8 9 9 7 6 6 5 4 1 354 352 351 345 336 329 320 308 294 280 271 271 269 262 257 256 255 252 250 250 246 240 234 231 227 225 224 223 221 218 216 214 210 206 204 201 196 188 180 173 169 178 190 194 194 191 172 164 179 178 171 186 197 197 199 199 200 206 204 195 188
39 32 26 22 18 16 14 13 11 9 10 12 13 13 12 9 8 9 6 3 4 5 4 2 357 354 355 352 343 336 328 316 303 287 270 264 266 262 254 251 252 250 248 248 245 240 235 232 228 225 223 224 223 220 220 218 211 203 195 189 186 181 177 176 168 171 183 188 191 194 176 154 166 165 143 143 162 165 169 171 168 171 175 170 166
37 32 26 23 22 18 15 13 11 10 10 12 13 14 13 11 10 9 6 3 3 3 1 360 359 358 359 360 354 346 339 327 310 292 270 258 258 258 252 247 246 244 242 240 236 232 229 226 223 220 219 223 227 224 223 222 215 205 197 190 184 179 180 186 177 165 173 181 187 192 173 146 155 154 132 118 119 131 144 152 152 154 155 154 153
35 31 28 26 25 23 20 16 14 13 11 12 14 15 15 14 11 11 9 4 1 0 359 358 1 2 2 3 0 356 354 346 327 305 274 253 251 253 249 240 234 233 234 232 226 221 215 211 212 214 215 217 219 219 218 218 215 209 203 197 188 181 182 186 174 160 160 179 186 189 172 147 150 151 141 127 102 104 134 142 144 147 148 146 145